Location: ????????
(54.6123°N, 39.2099°E)
Time: 07:12:05
(UTC+00:00)

ARIANE 5 R/B - Pass Details

Date: 19 May 2025
Orbit: 614 x 648 km, 98.0° (Epoch: 12 June)

Event Time Altitude Azimuth Distance (km) Brightness Sun altitude
Exits shadow 21:23:53 14° 231° (SW) 1,722 4.5 -15.4°
Maximum altitude 21:26:11 21° 270° (W) 1,420 4.4 -15.4°
Drops below altitude 10° 21:29:28 10° 319° (NW) 2,005 5.8 -15.4°
Sets 21:32:10 0° 336° (NNW) 2,924 7.2 -15.4°
